Weather History for Olivia, MN

Change the Weather History Date:

Saturday, November 17, 2012

  Actual Average (KRWF) Record (KRWF)
Temperature  
Mean Temperature 45 °F -  
Max Temperature 57 °F 40 °F 71 °F (1953)
Min Temperature 33 °F 25 °F -5 °F (1959)
Degree Days  
Heating Degree Days 20    
Moisture  
Dew Point 34 °F    
Average Humidity 65    
Maximum Humidity 87    
Minimum Humidity 44    
Precipitation  
Precipitation 0.00 in - - ()
Sea Level Pressure  
Sea Level Pressure 30.15 in    
Wind  
Wind Speed 12 mph (SSE)    
Max Wind Speed 21 mph    
Max Gust Speed 26 mph    
Visibility 10 miles    
Events      
Averages and records for this station are not official NWS values.
T = Trace of Precipitation, MM = Missing Value Source: NWS Daily Summary

Daily Weather History Graph

Daily Weather History Graph

Search for Another Location

Airport:

Trip Planner

Search our weather history database for the weather conditions in past years. The results will help you decide how hot, cold, wet, or windy it might be!

Date:

Astronomy

Nov. 17, 2012 Rise Set
Actual Time 7:20 AM CST 4:49 PM CST
Civil Twilight 6:48 AM CST 5:21 PM CST
Nautical Twilight 6:13 AM CST 5:56 PM CST
Astronomical Twilight 5:38 AM CST 6:31 PM CST
Moon 11:05 AM CST (11/17) 9:01 PM CST (11/17)
Length of Visible Light 10h 32m
Length of Day
9h 28m
Waxing Crescent, 20% of the Moon is Illuminated
Nov 17
Waxing Crescent
Nov 20
First Quarter
Nov 28
Full
Dec 6
Last Quarter
Dec 13
New

Hourly Weather History & Observations

Time (CST) Temp. Windchill Dew Point Humidity Pressure Visibility Wind Dir Wind Speed Gust Speed Precip Events Conditions
12:10 AM 35.6 °F 27.5 °F 28.4 °F 75% 30.22 in 10.0 mi SSE 11.5 mph - N/A   Clear
12:31 AM 35.6 °F 27.5 °F 30.2 °F 81% 30.21 in 10.0 mi SSE 11.5 mph - N/A   Clear
12:51 AM 33.8 °F 25.8 °F 28.4 °F 81% 30.21 in 10.0 mi SSE 10.4 mph - N/A   Clear
1:11 AM 35.6 °F 28.0 °F 30.2 °F 81% 30.21 in 10.0 mi SSE 10.4 mph - N/A   Clear
1:31 AM 35.6 °F 27.1 °F 30.2 °F 81% 30.21 in 10.0 mi SSE 12.7 mph - N/A   Clear
1:51 AM 33.8 °F 25.8 °F 30.2 °F 87% 30.21 in 10.0 mi SSE 10.4 mph - N/A   Clear
2:11 AM 33.8 °F 25.8 °F 30.2 °F 87% 30.21 in 10.0 mi SSE 10.4 mph - N/A   Clear
2:31 AM 33.8 °F 25.8 °F 30.2 °F 87% 30.21 in 10.0 mi SSE 10.4 mph - N/A   Clear
2:50 AM 33.8 °F 25.3 °F 30.2 °F 87% 30.21 in 10.0 mi SSE 11.5 mph - N/A   Clear
3:11 AM 33.8 °F 25.3 °F 30.2 °F 87% 30.20 in 10.0 mi SSE 11.5 mph - N/A   Clear
3:51 AM 33.8 °F 25.3 °F 30.2 °F 87% 30.19 in 10.0 mi SSE 11.5 mph - N/A   Clear
4:11 AM 33.8 °F 25.8 °F 30.2 °F 87% 30.18 in 10.0 mi SSE 10.4 mph - N/A   Clear
4:31 AM 33.8 °F 26.4 °F 30.2 °F 87% 30.18 in 10.0 mi SSE 9.2 mph - N/A   Clear
4:51 AM 35.6 °F 28.0 °F 32.0 °F 87% 30.18 in 10.0 mi SSE 10.4 mph - N/A   Clear
5:11 AM 35.6 °F 27.1 °F 32.0 °F 87% 30.18 in 10.0 mi SSE 12.7 mph - N/A   Clear
5:31 AM 35.6 °F 28.0 °F 32.0 °F 87% 30.18 in 10.0 mi SSE 10.4 mph - N/A   Clear
5:51 AM 35.6 °F 27.5 °F 32.0 °F 87% 30.17 in 10.0 mi SSE 11.5 mph - N/A   Clear
6:11 AM 35.6 °F 27.1 °F 32.0 °F 87% 30.17 in 10.0 mi SSE 12.7 mph - N/A   Clear
6:30 AM 35.6 °F 28.6 °F 32.0 °F 87% 30.18 in 10.0 mi SSE 9.2 mph - N/A   Clear
6:51 AM 35.6 °F 28.0 °F 32.0 °F 87% 30.18 in 10.0 mi SSE 10.4 mph - N/A   Clear
7:11 AM 35.6 °F 28.6 °F 32.0 °F 87% 30.18 in 10.0 mi SSE 9.2 mph - N/A   Clear
7:31 AM 35.6 °F 28.6 °F 32.0 °F 87% 30.18 in 10.0 mi SSE 9.2 mph - N/A   Clear
7:50 AM 35.6 °F 28.6 °F 32.0 °F 87% 30.18 in 10.0 mi SSE 9.2 mph - N/A   Clear
8:11 AM 35.6 °F 28.6 °F 32.0 °F 87% 30.18 in 10.0 mi SSE 9.2 mph - N/A   Clear
8:31 AM 39.2 °F 33.0 °F 32.0 °F 75% 30.19 in 10.0 mi SSE 9.2 mph - N/A   Clear
8:50 AM 41.0 °F 35.2 °F 33.8 °F 76% 30.18 in 10.0 mi SSE 9.2 mph - N/A   Clear
9:11 AM 42.8 °F 37.5 °F 33.8 °F 70% 30.18 in 10.0 mi SSE 9.2 mph - N/A   Clear
9:31 AM 42.8 °F 36.2 °F 33.8 °F 70% 30.18 in 10.0 mi SSE 12.7 mph - N/A   Clear
9:51 AM 44.6 °F 39.2 °F 33.8 °F 66% 30.19 in 10.0 mi South 10.4 mph 16.1 mph N/A   Clear
10:11 AM 44.6 °F 39.2 °F 33.8 °F 66% 30.19 in 10.0 mi SSE 10.4 mph - N/A   Clear
10:31 AM 46.4 °F 40.7 °F 35.6 °F 66% 30.19 in 10.0 mi South 12.7 mph - N/A   Clear
10:50 AM 50.0 °F - 35.6 °F 58% 30.19 in 10.0 mi South 10.4 mph 17.3 mph N/A   Clear
11:11 AM 50.0 °F - 35.6 °F 58% 30.18 in 10.0 mi SSE 11.5 mph 16.1 mph N/A   Clear
11:31 AM 50.0 °F - 35.6 °F 58% 30.17 in 10.0 mi South 10.4 mph 17.3 mph N/A   Clear
11:51 AM 51.8 °F - 35.6 °F 54% 30.17 in 10.0 mi SSE 10.4 mph 17.3 mph N/A   Clear
12:11 PM 51.8 °F - 35.6 °F 54% 30.16 in 10.0 mi SSE 10.4 mph - N/A   Clear
12:31 PM 53.6 °F - 35.6 °F 51% 30.15 in 10.0 mi South 17.3 mph 25.3 mph N/A   Scattered Clouds
12:51 PM 53.6 °F - 33.8 °F 47% 30.14 in 10.0 mi South 15.0 mph 23.0 mph N/A   Mostly Cloudy
1:11 PM 53.6 °F - 35.6 °F 51% 30.14 in 10.0 mi South 11.5 mph 21.9 mph N/A   Mostly Cloudy
1:31 PM 55.4 °F - 35.6 °F 47% 30.13 in 10.0 mi South 16.1 mph 23.0 mph N/A   Mostly Cloudy
1:51 PM 55.4 °F - 35.6 °F 47% 30.12 in 10.0 mi South 15.0 mph 20.7 mph N/A   Scattered Clouds
2:10 PM 57.2 °F - 35.6 °F 44% 30.11 in 10.0 mi South 17.3 mph 25.3 mph N/A   Clear
2:31 PM 57.2 °F - 35.6 °F 44% 30.11 in 10.0 mi SSE 17.3 mph 23.0 mph N/A   Clear
2:50 PM 57.2 °F - 35.6 °F 44% 30.10 in 10.0 mi SSE 18.4 mph - N/A   Clear
3:11 PM 57.2 °F - 35.6 °F 44% 30.09 in 10.0 mi SSE 17.3 mph 25.3 mph N/A   Clear
3:31 PM 57.2 °F - 35.6 °F 44% 30.09 in 10.0 mi SSE 17.3 mph 26.5 mph N/A   Clear
3:50 PM 57.2 °F - 35.6 °F 44% 30.09 in 10.0 mi SSE 19.6 mph 25.3 mph N/A   Clear
4:11 PM 57.2 °F - 35.6 °F 44% 30.09 in 10.0 mi SSE 17.3 mph 24.2 mph N/A   Clear
4:31 PM 53.6 °F - 33.8 °F 47% 30.09 in 10.0 mi SSE 17.3 mph 23.0 mph N/A   Clear
4:51 PM 53.6 °F - 35.6 °F 51% 30.09 in 10.0 mi SSE 12.7 mph 19.6 mph N/A   Clear
5:11 PM 53.6 °F - 37.4 °F 54% 30.10 in 10.0 mi SSE 11.5 mph - N/A   Clear
5:31 PM 51.8 °F - 35.6 °F 54% 30.11 in 10.0 mi SSE 12.7 mph - N/A   Scattered Clouds
5:51 PM 51.8 °F - 35.6 °F 54% 30.11 in 10.0 mi SSE 12.7 mph - N/A   Scattered Clouds
6:10 PM 50.0 °F - 35.6 °F 58% 30.12 in 10.0 mi SSE 9.2 mph - N/A   Clear
6:31 PM 50.0 °F - 35.6 °F 58% 30.12 in 10.0 mi SSE 11.5 mph - N/A   Mostly Cloudy
6:51 PM 50.0 °F - 33.8 °F 54% 30.11 in 10.0 mi SSE 13.8 mph 17.3 mph N/A   Scattered Clouds
7:11 PM 50.0 °F - 33.8 °F 54% 30.12 in 10.0 mi SSE 12.7 mph - N/A   Clear
7:31 PM 50.0 °F - 33.8 °F 54% 30.11 in 10.0 mi SSE 10.4 mph - N/A   Clear
7:51 PM 50.0 °F - 33.8 °F 54% 30.12 in 10.0 mi SSE 10.4 mph - N/A   Clear
8:11 PM 50.0 °F - 33.8 °F 54% 30.11 in 10.0 mi SSE 11.5 mph 18.4 mph N/A   Clear
8:31 PM 50.0 °F - 33.8 °F 54% 30.11 in 10.0 mi SSE 12.7 mph 17.3 mph N/A   Clear
8:51 PM 50.0 °F - 35.6 °F 58% 30.11 in 10.0 mi SSE 12.7 mph - N/A   Clear
9:10 PM 50.0 °F - 35.6 °F 58% 30.11 in 10.0 mi SSE 15.0 mph - N/A   Clear
9:31 PM 50.0 °F - 35.6 °F 58% 30.11 in 10.0 mi SSE 13.8 mph - N/A   Clear
9:50 PM 50.0 °F - 35.6 °F 58% 30.11 in 10.0 mi SSE 17.3 mph - N/A   Clear
10:11 PM 50.0 °F - 35.6 °F 58% 30.10 in 10.0 mi SSE 17.3 mph 21.9 mph N/A   Clear
10:31 PM 50.0 °F - 35.6 °F 58% 30.10 in 10.0 mi SSE 17.3 mph 21.9 mph N/A   Clear
10:51 PM 50.0 °F - 35.6 °F 58% 30.10 in 10.0 mi SSE 18.4 mph - N/A   Clear
11:11 PM 50.0 °F - 33.8 °F 54% 30.09 in 10.0 mi SSE 20.7 mph - N/A   Clear
11:31 PM 50.0 °F - 33.8 °F 54% 30.09 in 10.0 mi SSE 18.4 mph 26.5 mph N/A   Clear
11:51 PM 50.0 °F - 33.8 °F 54% 30.09 in 10.0 mi SSE 17.3 mph 23.0 mph N/A   Clear